Погода в Резекне

Латвия     56°30′50″N   27°20′08″E
темп.,
°C
ветер,
м/с
пор.,
м/с
влажн.,
%
обл.,
%
осадки,
мм/ч
давл.,
гПа
погр.,
м
7 марта, вс
вс723:00−1зюз101872100 0.0 10061091
02:00+1зюз101781100 0.1 10011222
05:00−3ссз91489100 2.6 9991027
08:00−3юз5786100 3.0 998429
11:00−1зсз111758100 1.8 9982351
14:00−1зсз9165290 2.1 9992203
17:00−2зсз81464100 0.0 9991483
20:00−5з7138897 0.1 999885
8 марта, пн
пн823:00−5зсз61089100 0.5 1001789
02:00−5сз4992100 0.9 1003583
05:00−7ссз5118667 0.2 1005519
08:00−7ссз6108481 0.2 1008902
11:00−6с6875100 0.1 1011875
14:00−5ссз5872100 0.1 1013932
17:00−6ссз477593 0.0 1014817
20:00−7ссз388668 0.0 1017282
9 марта, вт
вт923:00−9ссв249261 0.0 1018139
02:00−10ссз239331 0.0 101996
05:00−11сз12923 0.0 102026
08:00−10з128629 0.0 102197
11:00−6зюз236894 0.0 1021464
14:00−4зюз456397 0.0 1020709
17:00−3юз4868100 0.0 1019595
20:00−5юз51071100 0.0 1019299
10 марта, ср
ср1023:00−4зюз51272100 0.0 1018406
02:00−4зюз51179100 0.0 1018399
05:00−5зюз41083100 0.0 1018439
08:00−4юз5986100 0.1 1019399
11:00−3зюз469399 1.3 1020470
14:00−1з2391100 2.3 1020412
17:00−3всв4693100 0.4 1019297
20:00−5всв4795100 2.4 1020330
11 марта, чт
чт1123:00−6св4694100 0.7 1020259
02:00−9ссв249798 0.7 1020143
05:00−10св229696 0.1 101991
08:00−9вюв119487 0.1 101976
11:00−3ю358283 0.0 1017611
14:00−1ю587290 0.0 1015984
17:00−1ююв51174100 0.0 1012554
20:00−2ю81670100 0.0 1009813